Погода в Кутише

Россия / Республика Дагестан     42°25′24″N   47°16′54″E
темп.,
°C
ветер,
м/с
пор.,
м/с
влажн.,
%
обл.,
%
осадки,
мм/ч
давл.,
гПа
погр.,
м
28 сентября, вт
вт2800:00+8в2392100 0.1 1017306
03:00+7всв2295100 0.3 1016235
06:00+7всв2295100 0.1 1017374
09:00+7всв1294100 0.3 1017385
12:00+7св2292100 0.1 1018350
15:00+7св2294100 0.2 1018344
18:00+7ссв1293100 0.4 1020210
21:00+6ссв1289100 0.6 1022215
29 сентября, ср
ср2900:00+6ссв1189100 0.1 1022217
03:00+6в1188100 0.1 1022178
06:00+5всв129098 0.0 1022189
09:00+6всв2289100 0.0 1022451
12:00+6всв2293100 0.3 1022396
15:00+6св2295100 1.4 1022254
18:00+5св2296100 1.2 1023191
21:00+5всв1196100 1.6 1024211
30 сентября, чт
чт3000:00+5св2296100 0.4 1023210
03:00+5ссв1296100 1.8 1023190
06:00+5ссв2296100 1.7 1025207
09:00+5св1293100 4.6 1026582
12:00+5в2393100 1.3 1026694
15:00+5всв2395100 1.9 1025371
18:00+4всв2397100 0.7 1026468
21:00+4в2496100 1.7 1027589
1 октября, пт
пт100:00+4в1396100 0.5 1027511
03:00+4в1295100 1.3 1026220
06:00+4всв2296100 0.6 1026253
09:00+4в2497100 0.8 1026445
12:00+5в2493100 0.1 1026652
15:00+5вюв2490100 0.2 1025623
18:00+5вюв2493100 0.4 1027607
21:00+5вюв2495100 0.6 1027499
2 октября, сб
сб200:00+4в2295100 0.1 1027320
03:00+4вюв2395100 0.1 1027306
06:00+4в2295100 0.0 1027290
09:00+5юв238982 0.1 1027330
12:00+8всв2277100 0.0 1025800
15:00+7всв2281100 0.1 1025503
18:00+6всв119197 0.0 1027217
21:00+6вюв239160 0.0 1027166